Location: Marcé
(47.5801°N, 0.3280°W)
Time: 03:29:48
(UTC+01:00)

Explorer 11/Cluster Stage 4 - Pass Details

Date: 07 December 2021
Orbit: 467 x 1255 km, 28.8° (Epoch: 26 January)

Event Time Altitude Azimuth Distance (km) Brightness Sun altitude
Rises 05:33:25 0° 243° (WSW) 3,676 - -29.7°
Reaches altitude 10° 05:38:03 10° 214° (SSW) 2,911 - -28.9°
Exits shadow 05:40:02 12° 198° (SSW) 2,835 9.3 -28.6°
Maximum altitude 05:40:33 12° 193° (SSW) 2,845 9.3 -28.5°
Drops below altitude 10° 05:43:09 10° 173° (S) 3,069 9.7 -28.0°
Sets 05:48:25 0° 146° (SE) 4,140 10.8 -27.2°
